Вернуться в каталог

STARLINK-35270

АктивенСвязьVLEO
NORAD 65882·PAYLOAD·🇺🇸 United States

Запущен Oct 7, 2025 с Cape Canaveral Space Force Station

Loading…

Ближайшие Пролёты (ближайшие 24 часа)

TLE

СвежийSource: CelesTrak SupGP

Эпоха: Sep 14, 2026, 22:46 UTC

1 65882C 25224A   26257.94909722 -.00002455  00000+0 -72430-4 0  2572
2 65882  53.1577 208.0224 0001428 103.7888 147.1073 15.34442185    18

Отслеживайте STARLINK-35270 в реальном времени с AllMySat

Download on the App Store